This is the latest recevied weather packets stored in our database for station/object PP5FMM-13. If no packets are shown the sender has not sent any weather packets the latest 10 day(s).
| Time | Temp. | Humidity | Pressure | Rain* | Wind** | Luminosity | Snow |
|---|---|---|---|---|---|---|---|
| 1777899633 | 26.11° C | 75% | 1020.6 hPa | - | - | - | - |
| 1777899333 | 26.11° C | 74% | 1020.7 hPa | - | - | - | - |
| 1777899033 | 26.11° C | 73% | 1020.6 hPa | - | - | - | - |
| 1777898733 | 26.67° C | 73% | 1020.7 hPa | - | - | - | - |
| 1777898432 | 26.67° C | 75% | 1020.7 hPa | - | - | - | - |
| 1777898132 | 26.11° C | 77% | 1020.6 hPa | - | - | - | - |
| 1777897833 | 25° C | 77% | 1020.6 hPa | - | - | - | - |
| 1777897533 | 25° C | 76% | 1020.5 hPa | - | - | - | - |
| 1777897233 | 25° C | 76% | 1020.7 hPa | - | - | - | - |
| 1777896932 | 25° C | 76% | 1020.6 hPa | - | - | - | - |
| 1777896632 | 25.56° C | 79% | 1020.6 hPa | - | - | - | - |
| 1777896333 | 26.11° C | 78% | 1020.5 hPa | - | - | - | - |
| 1777896033 | 26.11° C | 79% | 1020.5 hPa | - | - | - | - |
| 1777895733 | 26.11° C | 77% | 1020.5 hPa | - | - | - | - |
| 1777895433 | 25.56° C | 80% | 1020.6 hPa | - | - | - | - |
| 1777895133 | 25° C | 83% | 1020.7 hPa | - | - | - | - |
| 1777894833 | 25° C | 83% | 1020.7 hPa | - | - | - | - |
| 1777894532 | 24.44° C | 85% | 1020.6 hPa | - | - | - | - |
| 1777894233 | 24.44° C | 86% | 1020.5 hPa | - | - | - | - |
| 1777893933 | 23.89° C | 86% | 1020.5 hPa | - | - | - | - |
| 1777893633 | 23.89° C | 87% | 1020.5 hPa | - | - | - | - |
| 1777893333 | 23.89° C | 88% | 1020.4 hPa | - | - | - | - |
| 1777893033 | 23.33° C | 89% | 1020.4 hPa | - | - | - | - |
| 1777892733 | 23.33° C | 87% | 1020.3 hPa | - | - | - | - |
| 1777892432 | 23.33° C | 85% | 1020.3 hPa | - | - | - | - |
* Rain since midnight (hover to see other rain measurements)
** Current wind speed in m/s (hover to see current wind gust speed)